owner,sensor,date,latitude,longitude,vertical_datum,wind_speed,wind_to_direction,wind_speed_of_gust,qcFlag 
COMPS,ioos:station:USF.COMPS:FHP:1,2019-09-01T00:54:00,28.1530,-82.8010,10.0,3.77,72.53,4.8,'11111222,11111222,11111222' 
COMPS,ioos:station:USF.COMPS:FHP:1,2019-09-01T01:54:00,28.1530,-82.8010,10.0,2.99,74.73,3.91,'11111222,11111222,11111222' 
COMPS,ioos:station:USF.COMPS:FHP:1,2019-09-01T02:54:00,28.1530,-82.8010,10.0,4.16,89.1,4.9,'11111222,11111222,11111222' 
COMPS,ioos:station:USF.COMPS:FHP:1,2019-09-01T03:54:00,28.1530,-82.8010,10.0,4.05,88.17,5.39,'11111222,11111222,11111222' 
COMPS,ioos:station:USF.COMPS:FHP:1,2019-09-01T04:54:00,28.1530,-82.8010,10.0,3.87,85.4,5.19,'11111222,11111222,11111222' 
COMPS,ioos:station:USF.COMPS:FHP:1,2019-09-01T05:54:00,28.1530,-82.8010,10.0,3.25,88.4,4.41,'11111222,11111222,11111222' 
COMPS,ioos:station:USF.COMPS:FHP:1,2019-09-01T06:54:00,28.1530,-82.8010,10.0,2.94,61.62,3.52,'11111222,11111222,11111222' 
COMPS,ioos:station:USF.COMPS:FHP:1,2019-09-01T07:54:00,28.1530,-82.8010,10.0,2.62,66.84,3.23,'11111222,11111222,11111222' 
COMPS,ioos:station:USF.COMPS:FHP:1,2019-09-01T08:54:00,28.1530,-82.8010,10.0,2.08,77.3,2.74,'11111222,11111222,11111222' 
COMPS,ioos:station:USF.COMPS:FHP:1,2019-09-01T09:54:00,28.1530,-82.8010,10.0,2.55,51.52,3.03,'11111222,11111222,11111222' 
COMPS,ioos:station:USF.COMPS:FHP:1,2019-09-01T10:54:00,28.1530,-82.8010,10.0,3.12,45.58,3.62,'11111222,11111222,11111222' 
COMPS,ioos:station:USF.COMPS:FHP:1,2019-09-01T11:54:00,28.1530,-82.8010,10.0,3.59,59.51,4.31,'11111222,11111222,11111222' 
COMPS,ioos:station:USF.COMPS:FHP:1,2019-09-01T12:54:00,28.1530,-82.8010,10.0,4.3,69.48,5.97,'11111222,11111222,11111222' 
COMPS,ioos:station:USF.COMPS:FHP:1,2019-09-01T13:54:00,28.1530,-82.8010,10.0,5.11,71.69,6.56,'11111222,11111222,11111222' 
COMPS,ioos:station:USF.COMPS:FHP:1,2019-09-01T14:54:00,28.1530,-82.8010,10.0,4.95,71.42,6.66,'11111222,11111222,11111222' 
COMPS,ioos:station:USF.COMPS:FHP:1,2019-09-01T15:54:00,28.1530,-82.8010,10.0,3.22,96.07,4.21,'11111222,11111222,11111222' 
COMPS,ioos:station:USF.COMPS:FHP:1,2019-09-01T16:54:00,28.1530,-82.8010,10.0,2.62,84.37,4.7,'11111222,11111222,11111222' 
COMPS,ioos:station:USF.COMPS:FHP:1,2019-09-01T17:54:00,28.1530,-82.8010,10.0,6.28,359.97,6.85,'11111222,11144222,11111222' 
COMPS,ioos:station:USF.COMPS:FHP:1,2019-09-01T18:54:00,28.1530,-82.8010,10.0,5.29,340.66,6.76,'11111222,11111222,11111222' 
COMPS,ioos:station:USF.COMPS:FHP:1,2019-09-01T19:54:00,28.1530,-82.8010,10.0,4.89,338.99,5.58,'11111222,11111222,11111222' 
COMPS,ioos:station:USF.COMPS:FHP:1,2019-09-01T20:54:00,28.1530,-82.8010,10.0,5.43,88.76,6.46,'11111222,11111222,11111222' 
COMPS,ioos:station:USF.COMPS:FHP:1,2019-09-01T21:54:00,28.1530,-82.8010,10.0,2.07,94.82,3.13,'11111222,11111222,11111222' 
COMPS,ioos:station:USF.COMPS:FHP:1,2019-09-01T22:54:00,28.1530,-82.8010,10.0,2.56,66.78,3.33,'11111222,11111222,11111222' 
COMPS,ioos:station:USF.COMPS:FHP:1,2019-09-01T23:54:00,28.1530,-82.8010,10.0,1.9,53.24,2.45,'11111222,11111222,11111222' 
COMPS,ioos:station:USF.COMPS:FHP:1,2019-09-02T00:54:00,28.1530,-82.8010,10.0,0.19,46.39,0.49,'11111222,11111222,11111222' 
COMPS,ioos:station:USF.COMPS:FHP:1,2019-09-02T01:54:00,28.1530,-82.8010,10.0,3.19,33.92,4.21,'11111222,11111222,11111222' 
COMPS,ioos:station:USF.COMPS:FHP:1,2019-09-02T02:54:00,28.1530,-82.8010,10.0,3.36,34.67,4.41,'11111222,11111222,11111222' 
COMPS,ioos:station:USF.COMPS:FHP:1,2019-09-02T03:54:00,28.1530,-82.8010,10.0,3.49,39.61,4.41,'11111222,11111222,11111222' 
COMPS,ioos:station:USF.COMPS:FHP:1,2019-09-02T04:54:00,28.1530,-82.8010,10.0,3.28,33.06,4.31,'11111222,11111222,11111222' 
COMPS,ioos:station:USF.COMPS:FHP:1,2019-09-02T05:54:00,28.1530,-82.8010,10.0,3.05,36.29,3.82,'11111222,11111222,11111222' 
COMPS,ioos:station:USF.COMPS:FHP:1,2019-09-02T06:54:00,28.1530,-82.8010,10.0,3.0,36.51,4.11,'11111222,11111222,11111222' 
COMPS,ioos:station:USF.COMPS:FHP:1,2019-09-02T07:54:00,28.1530,-82.8010,10.0,3.29,41.65,4.6,'11111222,11111222,11111222' 
COMPS,ioos:station:USF.COMPS:FHP:1,2019-09-02T08:54:00,28.1530,-82.8010,10.0,3.2,34.81,3.91,'11111222,11111222,11111222' 
COMPS,ioos:station:USF.COMPS:FHP:1,2019-09-02T09:54:00,28.1530,-82.8010,10.0,3.6,29.93,4.8,'11111222,11111222,11111222' 
COMPS,ioos:station:USF.COMPS:FHP:1,2019-09-02T10:54:00,28.1530,-82.8010,10.0,4.52,26.03,5.97,'11111222,11111222,11111222' 
COMPS,ioos:station:USF.COMPS:FHP:1,2019-09-02T11:54:00,28.1530,-82.8010,10.0,5.68,25.15,7.05,'11111222,11111222,11111222' 
COMPS,ioos:station:USF.COMPS:FHP:1,2019-09-02T14:54:00,28.1530,-82.8010,10.0,6.38,10.98,6.95,'11111222,11111222,11111222' 
COMPS,ioos:station:USF.COMPS:FHP:1,2019-09-02T15:54:00,28.1530,-82.8010,10.0,6.47,2.76,6.85,'11111222,11111222,11111222' 
COMPS,ioos:station:USF.COMPS:FHP:1,2019-09-02T16:54:00,28.1530,-82.8010,10.0,6.51,358.62,6.95,'11111222,11111222,11111222' 
COMPS,ioos:station:USF.COMPS:FHP:1,2019-09-02T17:54:00,28.1530,-82.8010,10.0,6.69,350.08,7.25,'11111222,11111222,11111222' 
COMPS,ioos:station:USF.COMPS:FHP:1,2019-09-02T18:54:00,28.1530,-82.8010,10.0,5.39,66.89,13.32,'11111222,11111222,11111222' 
COMPS,ioos:station:USF.COMPS:FHP:1,2019-09-02T19:54:00,28.1530,-82.8010,10.0,1.14,5.26,1.95,'11111222,11111222,11111222' 
COMPS,ioos:station:USF.COMPS:FHP:1,2019-09-02T20:54:00,28.1530,-82.8010,10.0,4.88,11.55,5.68,'11111222,11111222,11111222' 
COMPS,ioos:station:USF.COMPS:FHP:1,2019-09-02T21:54:00,28.1530,-82.8010,10.0,6.48,15.22,6.95,'11111222,11111222,11111222' 
COMPS,ioos:station:USF.COMPS:FHP:1,2019-09-02T22:54:00,28.1530,-82.8010,10.0,4.98,19.54,6.17,'11111222,11111222,11111222' 
COMPS,ioos:station:USF.COMPS:FHP:1,2019-09-02T23:54:00,28.1530,-82.8010,10.0,4.14,37.56,5.39,'11111222,11111222,11111222' 
COMPS,ioos:station:USF.COMPS:FHP:1,2019-09-03T00:54:00,28.1530,-82.8010,10.0,4.22,37.72,5.58,'11111222,11111222,11111222' 
COMPS,ioos:station:USF.COMPS:FHP:1,2019-09-03T01:54:00,28.1530,-82.8010,10.0,4.99,29.46,6.76,'11111222,11111222,11111222' 
COMPS,ioos:station:USF.COMPS:FHP:1,2019-09-03T02:54:00,28.1530,-82.8010,10.0,5.93,31.29,6.95,'11111222,11111222,11111222' 
COMPS,ioos:station:USF.COMPS:FHP:1,2019-09-03T03:54:00,28.1530,-82.8010,10.0,5.8,32.92,6.85,'11111222,11111222,11111222' 
COMPS,ioos:station:USF.COMPS:FHP:1,2019-09-03T04:54:00,28.1530,-82.8010,10.0,5.19,30.76,6.85,'11111222,11111222,11111222' 
COMPS,ioos:station:USF.COMPS:FHP:1,2019-09-03T05:54:00,28.1530,-82.8010,10.0,4.45,33.01,6.27,'11111222,11111222,11111222' 
COMPS,ioos:station:USF.COMPS:FHP:1,2019-09-03T06:54:00,28.1530,-82.8010,10.0,5.11,32.12,6.37,'11111222,11111222,11111222' 
COMPS,ioos:station:USF.COMPS:FHP:1,2019-09-03T07:54:00,28.1530,-82.8010,10.0,5.48,29.05,6.66,'11111222,11111222,11111222' 
COMPS,ioos:station:USF.COMPS:FHP:1,2019-09-03T08:54:00,28.1530,-82.8010,10.0,4.79,34.85,6.07,'11111222,11111222,11111222' 
COMPS,ioos:station:USF.COMPS:FHP:1,2019-09-03T09:54:00,28.1530,-82.8010,10.0,4.3,35.61,6.17,'11111222,11111222,11111222' 
COMPS,ioos:station:USF.COMPS:FHP:1,2019-09-03T10:54:00,28.1530,-82.8010,10.0,4.61,28.24,5.87,'11111222,11111222,11111222' 
COMPS,ioos:station:USF.COMPS:FHP:1,2019-09-03T11:54:00,28.1530,-82.8010,10.0,4.92,28.83,5.87,'11111222,11111222,11111222' 
COMPS,ioos:station:USF.COMPS:FHP:1,2019-09-03T12:54:00,28.1530,-82.8010,10.0,5.5,26.24,6.95,'11111222,11111222,11111222' 
COMPS,ioos:station:USF.COMPS:FHP:1,2019-09-03T13:54:00,28.1530,-82.8010,10.0,6.03,17.69,7.05,'11111222,11111222,11111222' 
COMPS,ioos:station:USF.COMPS:FHP:1,2019-09-03T14:54:00,28.1530,-82.8010,10.0,5.76,10.44,6.66,'11111222,11111222,11111222' 
COMPS,ioos:station:USF.COMPS:FHP:1,2019-09-03T15:54:00,28.1530,-82.8010,10.0,4.65,74.7,6.27,'11111222,11111222,11111222' 
COMPS,ioos:station:USF.COMPS:FHP:1,2019-09-03T16:54:00,28.1530,-82.8010,10.0,3.61,9.42,5.19,'11111222,11111222,11111222' 
COMPS,ioos:station:USF.COMPS:FHP:1,2019-09-03T17:54:00,28.1530,-82.8010,10.0,7.13,17.49,8.42,'11111222,11111222,11111222' 
COMPS,ioos:station:USF.COMPS:FHP:1,2019-09-03T18:54:00,28.1530,-82.8010,10.0,6.53,11.83,6.95,'11111222,11111222,11111222' 
COMPS,ioos:station:USF.COMPS:FHP:1,2019-09-03T19:54:00,28.1530,-82.8010,10.0,6.57,1.12,6.95,'11111222,11111222,11111222' 
COMPS,ioos:station:USF.COMPS:FHP:1,2019-09-03T20:54:00,28.1530,-82.8010,10.0,6.41,354.49,6.95,'11111222,11111222,11111222' 
COMPS,ioos:station:USF.COMPS:FHP:1,2019-09-03T21:54:00,28.1530,-82.8010,10.0,5.67,48.94,6.66,'11111222,11111222,11111222' 
COMPS,ioos:station:USF.COMPS:FHP:1,2019-09-03T22:54:00,28.1530,-82.8010,10.0,4.96,32.58,6.76,'11111222,11111222,11111222' 
COMPS,ioos:station:USF.COMPS:FHP:1,2019-09-03T23:54:00,28.1530,-82.8010,10.0,6.33,18.77,6.85,'11111222,11111222,11111222' 
COMPS,ioos:station:USF.COMPS:FHP:1,2019-09-04T00:54:00,28.1530,-82.8010,10.0,6.42,354.44,6.76,'11111222,11111222,11111222' 
COMPS,ioos:station:USF.COMPS:FHP:1,2019-09-04T01:54:00,28.1530,-82.8010,10.0,6.97,355.51,8.42,'11111222,11111222,11111222' 
COMPS,ioos:station:USF.COMPS:FHP:1,2019-09-04T02:54:00,28.1530,-82.8010,10.0,6.83,6.8,7.83,'11111222,11111222,11111222' 
COMPS,ioos:station:USF.COMPS:FHP:1,2019-09-04T03:54:00,28.1530,-82.8010,10.0,7.47,3.05,9.01,'11111222,11111222,11111222' 
COMPS,ioos:station:USF.COMPS:FHP:1,2019-09-04T04:54:00,28.1530,-82.8010,10.0,6.63,9.41,7.83,'11111222,11111222,11111222' 
COMPS,ioos:station:USF.COMPS:FHP:1,2019-09-04T05:54:00,28.1530,-82.8010,10.0,7.09,3.26,7.83,'11111222,11111222,11111222' 
COMPS,ioos:station:USF.COMPS:FHP:1,2019-09-04T06:54:00,28.1530,-82.8010,10.0,6.89,4.73,7.93,'11111222,11111222,11111222' 
COMPS,ioos:station:USF.COMPS:FHP:1,2019-09-04T07:54:00,28.1530,-82.8010,10.0,6.56,342.39,7.25,'11111222,11111222,11111222' 
COMPS,ioos:station:USF.COMPS:FHP:1,2019-09-04T08:54:00,28.1530,-82.8010,10.0,6.5,350.72,7.05,'11111222,11111222,11111222' 
COMPS,ioos:station:USF.COMPS:FHP:1,2019-09-04T09:54:00,28.1530,-82.8010,10.0,6.47,346.63,6.95,'11111222,11111222,11111222' 
COMPS,ioos:station:USF.COMPS:FHP:1,2019-09-04T10:54:00,28.1530,-82.8010,10.0,6.57,345.24,6.95,'11111222,11111222,11111222' 
COMPS,ioos:station:USF.COMPS:FHP:1,2019-09-04T11:54:00,28.1530,-82.8010,10.0,6.53,342.38,7.05,'11111222,11111222,11111222' 
COMPS,ioos:station:USF.COMPS:FHP:1,2019-09-04T12:54:00,28.1530,-82.8010,10.0,6.58,343.62,7.05,'11111222,11111222,11111222' 
COMPS,ioos:station:USF.COMPS:FHP:1,2019-09-04T13:54:00,28.1530,-82.8010,10.0,6.58,328.46,7.15,'11111222,11111222,11111222' 
COMPS,ioos:station:USF.COMPS:FHP:1,2019-09-04T14:54:00,28.1530,-82.8010,10.0,6.71,324.16,7.35,'11111222,11111222,11111222' 
COMPS,ioos:station:USF.COMPS:FHP:1,2019-09-04T15:54:00,28.1530,-82.8010,10.0,6.55,320.63,7.54,'11111222,11111222,11111222' 
COMPS,ioos:station:USF.COMPS:FHP:1,2019-09-04T16:54:00,28.1530,-82.8010,10.0,6.36,310.17,6.76,'11111222,11111222,11111222' 
COMPS,ioos:station:USF.COMPS:FHP:1,2019-09-04T17:54:00,28.1530,-82.8010,10.0,6.64,304.73,8.52,'11111222,11111222,11111222' 
COMPS,ioos:station:USF.COMPS:FHP:1,2019-09-04T18:54:00,28.1530,-82.8010,10.0,7.07,302.48,8.23,'11111222,11111222,11111222' 
COMPS,ioos:station:USF.COMPS:FHP:1,2019-09-04T19:54:00,28.1530,-82.8010,10.0,6.86,313.01,7.93,'11111222,11111222,11111222' 
COMPS,ioos:station:USF.COMPS:FHP:1,2019-09-04T20:54:00,28.1530,-82.8010,10.0,6.71,313.77,7.93,'11111222,11111222,11111222' 
COMPS,ioos:station:USF.COMPS:FHP:1,2019-09-04T21:54:00,28.1530,-82.8010,10.0,6.14,309.97,6.66,'11111222,11111222,11111222' 
COMPS,ioos:station:USF.COMPS:FHP:1,2019-09-04T22:54:00,28.1530,-82.8010,10.0,6.05,308.1,6.66,'11111222,11111222,11111222' 
COMPS,ioos:station:USF.COMPS:FHP:1,2019-09-04T23:54:00,28.1530,-82.8010,10.0,6.02,302.71,6.66,'11111222,11111222,11111222' 
COMPS,ioos:station:USF.COMPS:FHP:1,2019-09-05T00:54:00,28.1530,-82.8010,10.0,6.09,289.46,6.76,'11111222,11111222,11111222' 
COMPS,ioos:station:USF.COMPS:FHP:1,2019-09-05T01:54:00,28.1530,-82.8010,10.0,6.2,293.75,6.66,'11111222,11111222,11111222' 
COMPS,ioos:station:USF.COMPS:FHP:1,2019-09-05T02:54:00,28.1530,-82.8010,10.0,6.04,282.45,6.56,'11111222,11111222,11111222' 
COMPS,ioos:station:USF.COMPS:FHP:1,2019-09-05T03:54:00,28.1530,-82.8010,10.0,5.62,280.46,6.56,'11111222,11111222,11111222' 
COMPS,ioos:station:USF.COMPS:FHP:1,2019-09-05T04:54:00,28.1530,-82.8010,10.0,6.16,276.12,6.56,'11111222,11111222,11111222' 
COMPS,ioos:station:USF.COMPS:FHP:1,2019-09-05T05:54:00,28.1530,-82.8010,10.0,5.8,279.81,6.66,'11111222,11111222,11111222' 
COMPS,ioos:station:USF.COMPS:FHP:1,2019-09-05T06:54:00,28.1530,-82.8010,10.0,6.19,274.4,6.76,'11111222,11111222,11111222' 
COMPS,ioos:station:USF.COMPS:FHP:1,2019-09-05T07:54:00,28.1530,-82.8010,10.0,6.18,274.79,6.76,'11111222,11111222,11111222' 
COMPS,ioos:station:USF.COMPS:FHP:1,2019-09-05T08:54:00,28.1530,-82.8010,10.0,6.21,269.8,6.66,'11111222,11111222,11111222' 
COMPS,ioos:station:USF.COMPS:FHP:1,2019-09-05T09:54:00,28.1530,-82.8010,10.0,6.39,270.78,7.05,'11111222,11111222,11111222' 
COMPS,ioos:station:USF.COMPS:FHP:1,2019-09-05T10:54:00,28.1530,-82.8010,10.0,6.17,279.73,7.05,'11111222,11111222,11111222' 
COMPS,ioos:station:USF.COMPS:FHP:1,2019-09-05T11:54:00,28.1530,-82.8010,10.0,6.06,276.66,6.85,'11111222,11111222,11111222' 
COMPS,ioos:station:USF.COMPS:FHP:1,2019-09-05T12:54:00,28.1530,-82.8010,10.0,5.91,277.88,6.76,'11111222,11111222,11111222' 
COMPS,ioos:station:USF.COMPS:FHP:1,2019-09-05T13:54:00,28.1530,-82.8010,10.0,6.22,271.78,6.66,'11111222,11111222,11111222' 
COMPS,ioos:station:USF.COMPS:FHP:1,2019-09-05T14:54:00,28.1530,-82.8010,10.0,6.08,281.14,6.85,'11111222,11111222,11111222' 
COMPS,ioos:station:USF.COMPS:FHP:1,2019-09-05T15:54:00,28.1530,-82.8010,10.0,6.01,272.56,6.56,'11111222,11111222,11111222' 
COMPS,ioos:station:USF.COMPS:FHP:1,2019-09-05T16:54:00,28.1530,-82.8010,10.0,6.01,272.69,6.66,'11111222,11111222,11111222' 
COMPS,ioos:station:USF.COMPS:FHP:1,2019-09-05T17:54:00,28.1530,-82.8010,10.0,5.7,281.69,6.46,'11111222,11111222,11111222' 
COMPS,ioos:station:USF.COMPS:FHP:1,2019-09-05T18:54:00,28.1530,-82.8010,10.0,5.56,280.19,6.66,'11111222,11111222,11111222' 
COMPS,ioos:station:USF.COMPS:FHP:1,2019-09-05T19:54:00,28.1530,-82.8010,10.0,6.1,271.03,6.56,'11111222,11111222,11111222' 
COMPS,ioos:station:USF.COMPS:FHP:1,2019-09-05T20:54:00,28.1530,-82.8010,10.0,6.15,267.1,6.66,'11111222,11111222,11111222' 
COMPS,ioos:station:USF.COMPS:FHP:1,2019-09-05T21:54:00,28.1530,-82.8010,10.0,6.21,269.59,6.56,'11111222,11111222,11111222' 
COMPS,ioos:station:USF.COMPS:FHP:1,2019-09-05T22:54:00,28.1530,-82.8010,10.0,6.12,268.83,6.66,'11111222,11111222,11111222' 
COMPS,ioos:station:USF.COMPS:FHP:1,2019-09-05T23:54:00,28.1530,-82.8010,10.0,5.4,276.33,6.46,'11111222,11111222,11111222' 
COMPS,ioos:station:USF.COMPS:FHP:1,2019-09-06T00:54:00,28.1530,-82.8010,10.0,5.76,278.61,6.66,'11111222,11111222,11111222' 
COMPS,ioos:station:USF.COMPS:FHP:1,2019-09-06T01:54:00,28.1530,-82.8010,10.0,5.92,277.51,6.66,'11111222,11111222,11111222' 
COMPS,ioos:station:USF.COMPS:FHP:1,2019-09-06T02:54:00,28.1530,-82.8010,10.0,6.02,277.95,6.76,'11111222,11111222,11111222' 
COMPS,ioos:station:USF.COMPS:FHP:1,2019-09-06T03:54:00,28.1530,-82.8010,10.0,6.15,273.56,6.76,'11111222,11111222,11111222' 
COMPS,ioos:station:USF.COMPS:FHP:1,2019-09-06T04:54:00,28.1530,-82.8010,10.0,6.2,267.42,6.66,'11111222,11111222,11111222' 
COMPS,ioos:station:USF.COMPS:FHP:1,2019-09-06T06:54:00,28.1530,-82.8010,10.0,6.32,272.57,6.66,'11111222,11111222,11111222' 
COMPS,ioos:station:USF.COMPS:FHP:1,2019-09-06T07:54:00,28.1530,-82.8010,10.0,6.14,274.02,6.66,'11111222,11111222,11111222' 
COMPS,ioos:station:USF.COMPS:FHP:1,2019-09-06T08:54:00,28.1530,-82.8010,10.0,6.04,281.94,6.76,'11111222,11111222,11111222' 
COMPS,ioos:station:USF.COMPS:FHP:1,2019-09-06T09:54:00,28.1530,-82.8010,10.0,5.96,281.68,6.66,'11111222,11111222,11111222' 
COMPS,ioos:station:USF.COMPS:FHP:1,2019-09-06T10:54:00,28.1530,-82.8010,10.0,5.57,280.7,6.66,'11111222,11111222,11111222' 
COMPS,ioos:station:USF.COMPS:FHP:1,2019-09-06T11:54:00,28.1530,-82.8010,10.0,5.74,290.2,6.66,'11111222,11111222,11111222' 
COMPS,ioos:station:USF.COMPS:FHP:1,2019-09-06T12:54:00,28.1530,-82.8010,10.0,5.2,293.47,6.56,'11111222,11111222,11111222' 
COMPS,ioos:station:USF.COMPS:FHP:1,2019-09-06T13:54:00,28.1530,-82.8010,10.0,4.82,293.71,6.37,'11111222,11111222,11111222' 
COMPS,ioos:station:USF.COMPS:FHP:1,2019-09-06T14:54:00,28.1530,-82.8010,10.0,5.75,291.27,6.56,'11111222,11111222,11111222' 
COMPS,ioos:station:USF.COMPS:FHP:1,2019-09-06T15:54:00,28.1530,-82.8010,10.0,4.68,283.29,6.17,'11111222,11111222,11111222' 
COMPS,ioos:station:USF.COMPS:FHP:1,2019-09-06T16:54:00,28.1530,-82.8010,10.0,4.43,279.23,5.78,'11111222,11111222,11111222' 
COMPS,ioos:station:USF.COMPS:FHP:1,2019-09-06T17:54:00,28.1530,-82.8010,10.0,4.47,282.29,5.68,'11111222,11111222,11111222' 
COMPS,ioos:station:USF.COMPS:FHP:1,2019-09-06T18:54:00,28.1530,-82.8010,10.0,4.72,281.92,6.07,'11111222,11111222,11111222' 
COMPS,ioos:station:USF.COMPS:FHP:1,2019-09-06T19:54:00,28.1530,-82.8010,10.0,5.46,295.44,6.56,'11111222,11111222,11111222' 
COMPS,ioos:station:USF.COMPS:FHP:1,2019-09-06T20:54:00,28.1530,-82.8010,10.0,4.5,293.29,5.97,'11111222,11111222,11111222' 
COMPS,ioos:station:USF.COMPS:FHP:1,2019-09-06T21:54:00,28.1530,-82.8010,10.0,4.35,300.63,5.58,'11111222,11111222,11111222' 
COMPS,ioos:station:USF.COMPS:FHP:1,2019-09-06T22:54:00,28.1530,-82.8010,10.0,4.72,320.59,5.87,'11111222,11111222,11111222' 
COMPS,ioos:station:USF.COMPS:FHP:1,2019-09-06T23:54:00,28.1530,-82.8010,10.0,5.52,320.13,6.56,'11111222,11111222,11111222' 
COMPS,ioos:station:USF.COMPS:FHP:1,2019-09-07T00:54:00,28.1530,-82.8010,10.0,4.18,315.15,5.29,'11111222,11111222,11111222' 
COMPS,ioos:station:USF.COMPS:FHP:1,2019-09-07T01:54:00,28.1530,-82.8010,10.0,5.31,311.64,6.37,'11111222,11111222,11111222' 
COMPS,ioos:station:USF.COMPS:FHP:1,2019-09-07T02:54:00,28.1530,-82.8010,10.0,5.07,306.84,6.17,'11111222,11111222,11111222' 
COMPS,ioos:station:USF.COMPS:FHP:1,2019-09-07T03:54:00,28.1530,-82.8010,10.0,2.62,308.06,3.33,'11111222,11111222,11111222' 
COMPS,ioos:station:USF.COMPS:FHP:1,2019-09-07T04:54:00,28.1530,-82.8010,10.0,2.58,315.09,3.72,'11111222,11111222,11111222' 
COMPS,ioos:station:USF.COMPS:FHP:1,2019-09-07T05:54:00,28.1530,-82.8010,10.0,2.79,336.15,3.62,'11111222,11111222,11111222' 
COMPS,ioos:station:USF.COMPS:FHP:1,2019-09-07T06:54:00,28.1530,-82.8010,10.0,2.65,341.75,3.62,'11111222,11111222,11111222' 
COMPS,ioos:station:USF.COMPS:FHP:1,2019-09-07T07:54:00,28.1530,-82.8010,10.0,2.75,333.44,3.23,'11111222,11111222,11111222' 
COMPS,ioos:station:USF.COMPS:FHP:1,2019-09-07T08:54:00,28.1530,-82.8010,10.0,2.18,325.81,2.74,'11111222,11111222,11111222' 
COMPS,ioos:station:USF.COMPS:FHP:1,2019-09-07T09:54:00,28.1530,-82.8010,10.0,1.3,336.49,2.05,'11111222,11111222,11111222' 
COMPS,ioos:station:USF.COMPS:FHP:1,2019-09-07T10:54:00,28.1530,-82.8010,10.0,1.83,140.01,2.05,'11111222,11111222,11111222' 
COMPS,ioos:station:USF.COMPS:FHP:1,2019-09-07T11:54:00,28.1530,-82.8010,10.0,1.62,152.02,1.95,'11111222,11111222,11111222' 
COMPS,ioos:station:USF.COMPS:FHP:1,2019-09-07T12:54:00,28.1530,-82.8010,10.0,2.52,166.76,2.93,'11111222,11111222,11111222' 
COMPS,ioos:station:USF.COMPS:FHP:1,2019-09-07T13:54:00,28.1530,-82.8010,10.0,3.16,195.64,3.62,'11111222,11111222,11111222' 
COMPS,ioos:station:USF.COMPS:FHP:1,2019-09-07T14:54:00,28.1530,-82.8010,10.0,3.23,228.19,3.91,'11111222,11111222,11111222' 
COMPS,ioos:station:USF.COMPS:FHP:1,2019-09-07T15:54:00,28.1530,-82.8010,10.0,3.46,245.62,4.31,'11111222,11111222,11111222' 
COMPS,ioos:station:USF.COMPS:FHP:1,2019-09-07T16:54:00,28.1530,-82.8010,10.0,3.57,255.59,4.41,'11111222,11111222,11111222' 
COMPS,ioos:station:USF.COMPS:FHP:1,2019-09-07T17:54:00,28.1530,-82.8010,10.0,3.66,268.65,4.41,'11111222,11111222,11111222' 
COMPS,ioos:station:USF.COMPS:FHP:1,2019-09-07T18:54:00,28.1530,-82.8010,10.0,3.71,287.74,4.7,'11111222,11111222,11111222' 
COMPS,ioos:station:USF.COMPS:FHP:1,2019-09-07T19:54:00,28.1530,-82.8010,10.0,3.32,291.66,4.31,'11111222,11111222,11111222' 
COMPS,ioos:station:USF.COMPS:FHP:1,2019-09-07T20:54:00,28.1530,-82.8010,10.0,3.71,301.57,4.99,'11111222,11111222,11111222' 
COMPS,ioos:station:USF.COMPS:FHP:1,2019-09-07T21:54:00,28.1530,-82.8010,10.0,3.29,312.38,4.21,'11111222,11111222,11111222' 
COMPS,ioos:station:USF.COMPS:FHP:1,2019-09-07T22:54:00,28.1530,-82.8010,10.0,3.36,317.5,4.41,'11111222,11111222,11111222' 
COMPS,ioos:station:USF.COMPS:FHP:1,2019-09-07T23:54:00,28.1530,-82.8010,10.0,2.83,310.3,3.72,'11111222,11111222,11111222' 
COMPS,ioos:station:USF.COMPS:FHP:1,2019-09-08T00:54:00,28.1530,-82.8010,10.0,2.52,310.92,3.03,'11111222,11111222,11111222' 
COMPS,ioos:station:USF.COMPS:FHP:1,2019-09-08T01:54:00,28.1530,-82.8010,10.0,2.86,315.29,3.33,'11111222,11111222,11111222' 
COMPS,ioos:station:USF.COMPS:FHP:1,2019-09-08T02:54:00,28.1530,-82.8010,10.0,3.16,322.68,3.62,'11111222,11111222,11111222' 
COMPS,ioos:station:USF.COMPS:FHP:1,2019-09-08T03:54:00,28.1530,-82.8010,10.0,4.24,334.31,4.8,'11111222,11111222,11111222' 
COMPS,ioos:station:USF.COMPS:FHP:1,2019-09-08T04:54:00,28.1530,-82.8010,10.0,4.49,340.68,5.29,'11111222,11111222,11111222' 
COMPS,ioos:station:USF.COMPS:FHP:1,2019-09-08T05:54:00,28.1530,-82.8010,10.0,3.43,344.55,3.82,'11111222,11111222,11111222' 
COMPS,ioos:station:USF.COMPS:FHP:1,2019-09-08T06:54:00,28.1530,-82.8010,10.0,3.56,342.62,4.21,'11111222,11111222,11111222' 
COMPS,ioos:station:USF.COMPS:FHP:1,2019-09-08T07:54:00,28.1530,-82.8010,10.0,3.01,348.61,3.72,'11111222,11111222,11111222' 
COMPS,ioos:station:USF.COMPS:FHP:1,2019-09-08T08:54:00,28.1530,-82.8010,10.0,1.1,84.64,1.46,'11111222,11111222,11111222' 
COMPS,ioos:station:USF.COMPS:FHP:1,2019-09-08T09:54:00,28.1530,-82.8010,10.0,2.14,109.69,2.84,'11111222,11111222,11111222' 
COMPS,ioos:station:USF.COMPS:FHP:1,2019-09-08T10:54:00,28.1530,-82.8010,10.0,2.61,140.86,3.03,'11111222,11111222,11111222' 
COMPS,ioos:station:USF.COMPS:FHP:1,2019-09-08T11:54:00,28.1530,-82.8010,10.0,2.3,159.56,2.84,'11111222,11111222,11111222' 
COMPS,ioos:station:USF.COMPS:FHP:1,2019-09-08T12:54:00,28.1530,-82.8010,10.0,1.13,144.75,1.66,'11111222,11111222,11111222' 
COMPS,ioos:station:USF.COMPS:FHP:1,2019-09-08T13:54:00,28.1530,-82.8010,10.0,0.41,166.69,0.78,'11111222,11111222,11111222' 
COMPS,ioos:station:USF.COMPS:FHP:1,2019-09-08T14:54:00,28.1530,-82.8010,10.0,1.41,248.32,1.95,'11111222,11111222,11111222' 
COMPS,ioos:station:USF.COMPS:FHP:1,2019-09-08T15:54:00,28.1530,-82.8010,10.0,2.63,273.87,3.23,'11111222,11111222,11111222' 
COMPS,ioos:station:USF.COMPS:FHP:1,2019-09-08T16:54:00,28.1530,-82.8010,10.0,2.86,289.86,3.52,'11111222,11111222,11111222' 
COMPS,ioos:station:USF.COMPS:FHP:1,2019-09-08T17:54:00,28.1530,-82.8010,10.0,3.18,295.53,4.5,'11111222,11111222,11111222' 
COMPS,ioos:station:USF.COMPS:FHP:1,2019-09-08T18:54:00,28.1530,-82.8010,10.0,3.14,290.09,3.91,'11111222,11111222,11111222' 
COMPS,ioos:station:USF.COMPS:FHP:1,2019-09-08T19:54:00,28.1530,-82.8010,10.0,3.22,278.55,4.11,'11111222,11111222,11111222' 
COMPS,ioos:station:USF.COMPS:FHP:1,2019-09-08T20:54:00,28.1530,-82.8010,10.0,2.92,283.54,4.21,'11111222,11111222,11111222' 
COMPS,ioos:station:USF.COMPS:FHP:1,2019-09-08T21:54:00,28.1530,-82.8010,10.0,2.4,285.57,3.23,'11111222,11111222,11111222' 
COMPS,ioos:station:USF.COMPS:FHP:1,2019-09-08T22:54:00,28.1530,-82.8010,10.0,2.23,292.71,3.03,'11111222,11111222,11111222' 
COMPS,ioos:station:USF.COMPS:FHP:1,2019-09-08T23:54:00,28.1530,-82.8010,10.0,1.92,320.21,2.35,'11111222,11111222,11111222' 
COMPS,ioos:station:USF.COMPS:FHP:1,2019-09-09T00:54:00,28.1530,-82.8010,10.0,1.14,346.5,1.95,'11111222,11111222,11111222' 
COMPS,ioos:station:USF.COMPS:FHP:1,2019-09-09T01:54:00,28.1530,-82.8010,10.0,1.42,333.43,2.05,'11111222,11111222,11111222' 
COMPS,ioos:station:USF.COMPS:FHP:1,2019-09-09T02:54:00,28.1530,-82.8010,10.0,1.67,6.41,2.45,'11111222,11111222,11111222' 
COMPS,ioos:station:USF.COMPS:FHP:1,2019-09-09T03:54:00,28.1530,-82.8010,10.0,0.49,63.48,0.78,'11111222,11111222,11111222' 